Theta_e
331 331 332 333 334 333 332 332 334 334 336 335 336 338 340 339 342 344 346 347 347 347 348 346 348 348 349 351 355 354 353 353
332 331 331 331 333 333 331 335 339 338 336 338 340 339 339 340 342 345 347 348 349 349 348 348 348 349 350 350 353 354 353 353
332 331 332 332 331 332 333 336 337 337 339 338 338 336 340 341 340 343 344 347 348 349 349 348 348 349 350 350 351 353 353 352
335 333 334 335 334 333 334 335 336 338 336 338 336 339 339 340 340 341 343 346 347 350 350 348 349 349 350 350 350 351 353 353
335 336 333 331 332 332 333 333 336 337 340 338 337 338 339 340 340 341 341 347 346 348 351 351 350 351 352 351 351 351 353 353
333 336 335 334 332 333 333 334 334 335 339 339 338 339 339 340 341 339 342 344 349 345 348 350 351 352 352 352 351 351 352 352
332 335 334 333 332 331 333 333 334 334 335 334 337 337 339 340 342 341 342 343 345 347 349 343 348 350 352 352 353 353 353 354
332 333 332 331 330 329 329 332 332 332 334 333 335 335 336 340 340 341 339 338 340 343 345 347 341 345 351 350 352 354 354 354
333 333 331 332 330 329 330 330 331 332 332 332 336 337 337 339 338 337 336 338 338 342 346 348 346 345 344 345 347 351 352 353
333 333 333 333 330 330 329 330 330 331 331 335 335 337 338 337 333 335 336 337 342 343 345 347 347 347 345 339 339 343 347 351
333 332 331 332 330 330 329 329 329 329 330 331 334 338 338 335 335 336 337 340 341 341 344 346 346 346 345 345 346 343 341 346
333 332 332 333 330 329 328 330 330 329 330 333 336 340 340 335 335 335 337 338 339 340 341 342 344 344 345 345 346 347 347 343
333 334 331 330 329 329 331 334 334 330 330 334 338 337 336 335 335 336 336 338 338 338 339 340 341 342 342 343 344 345 344 341
332 334 332 329 329 332 334 333 333 332 332 336 339 337 336 336 336 336 335 336 336 337 338 339 340 339 342 343 343 343 345 345
330 332 333 330 329 330 330 330 334 336 336 338 339 335 335 335 334 334 334 334 332 332 336 339 339 335 340 339 341 342 342 340
329 329 329 329 329 328 330 329 332 334 335 337 334 334 333 333 332 333 334 335 333 334 335 337 339 338 336 337 338 339 342 339
330 329 329 331 329 329 330 329 331 331 333 334 332 332 331 331 331 333 335 336 335 335 335 336 337 338 337 336 336 338 339 339
329 329 330 330 330 330 330 330 330 331 331 332 331 331 331 332 335 335 336 338 338 338 337 336 337 337 338 336 334 337 339 339
329 328 328 329 330 328 331 331 330 330 332 333 335 333 333 337 337 339 339 340 340 339 338 337 336 336 336 334 333 334 336 337
Wind_Speed
12 12 11 5 6 10 11 6 7 4 6 9 8 8 8 5 5 3 1 2 13 14 20 22 21 21 21 21 20 20 19 17
12 11 12 13 12 8 8 4 8 5 6 7 12 8 7 5 6 4 3 3 3 7 14 19 22 23 21 21 21 21 19 17
10 12 17 11 13 11 12 5 6 5 7 9 7 4 8 8 2 6 1 2 4 6 10 17 21 24 24 22 21 19 20 19
21 8 4 12 10 14 9 9 8 6 3 13 9 9 3 9 7 8 5 3 2 2 6 12 17 20 20 26 22 21 20 20
7 16 12 10 14 14 13 14 4 8 6 8 10 9 7 11 8 7 4 4 3 3 3 7 13 11 12 15 20 21 20 20
11 9 2 9 12 6 12 10 10 12 15 11 10 7 8 8 5 6 5 4 5 3 4 5 8 11 13 12 15 16 20 22
15 22 13 10 7 8 12 14 15 6 4 7 11 8 10 8 10 6 5 5 4 4 4 6 6 8 11 13 14 17 17 16
17 21 18 10 9 10 13 12 13 13 11 3 12 7 6 10 11 8 7 4 3 3 3 4 6 10 8 9 11 14 17 20
17 17 15 13 12 15 14 13 12 12 9 9 9 7 9 12 11 9 6 4 2 2 3 4 6 5 9 10 10 9 12 16
13 15 18 14 9 7 11 11 11 10 10 8 6 9 11 12 13 10 7 5 3 2 2 2 4 5 3 5 8 11 11 15
14 15 13 16 9 8 12 12 12 14 10 9 9 14 12 12 11 9 7 6 5 2 1 2 4 7 5 3 4 3 11 15
9 17 19 18 8 11 3 10 14 16 13 13 13 11 11 18 13 10 7 6 4 2 1 1 3 5 6 6 6 5 5 9
14 14 11 12 11 4 8 2 7 2 12 14 13 8 24 19 13 10 8 6 4 2 1 1 3 4 7 8 8 7 7 6
16 18 17 5 3 10 4 2 3 5 11 15 15 16 15 14 12 11 9 5 4 2 0 2 3 4 5 6 10 8 6 8
5 12 12 6 14 9 8 3 3 7 11 16 13 14 14 13 12 10 8 6 3 0 1 3 4 4 3 7 9 11 9 9
6 4 8 13 14 9 8 8 9 13 15 14 14 13 13 12 10 9 7 6 4 2 1 3 4 4 5 5 7 10 8 9
14 19 9 16 10 8 9 10 9 9 12 14 14 14 13 10 8 8 9 8 7 5 4 3 3 4 3 6 5 10 12 11
9 14 11 19 9 9 10 12 11 11 10 10 9 7 9 8 10 10 11 11 10 8 6 5 3 3 4 6 6 6 9 12
21 26 24 22 20 13 9 13 13 11 12 12 8 8 9 10 11 11 11 12 11 8 7 6 5 5 5 5 6 6 6 7
Wind_Direction
202 228 246 269 244 316 314 247 277 185 124 162 126 156 165 188 112 156 120 189 210 212 197 210 200 199 201 199 203 198 199 201
189 233 249 274 309 218 235 263 255 69 203 150 169 145 183 160 170 133 154 167 209 228 233 201 205 204 204 204 205 205 198 202
154 210 237 197 239 252 264 246 277 250 67 79 87 144 170 119 130 111 138 224 224 247 229 220 215 200 201 205 207 207 207 204
215 182 152 280 260 237 237 206 316 326 21 104 114 120 137 125 149 131 99 102 167 203 210 208 213 221 202 200 207 211 211 208
175 190 204 237 238 257 269 287 238 282 107 106 124 141 153 165 163 164 156 135 98 88 146 195 211 221 204 217 205 212 211 213
245 51 212 218 224 233 266 261 242 236 135 165 144 150 166 185 170 180 168 174 146 143 132 173 195 207 217 221 222 229 217 215
284 178 271 236 271 279 220 261 278 334 247 105 121 153 180 194 170 184 174 176 168 178 200 204 198 210 217 214 216 222 227 229
232 253 197 251 268 258 269 248 256 269 279 58 126 147 188 179 173 181 173 180 196 212 216 253 222 201 204 208 218 214 225 228
253 242 261 225 245 259 245 236 240 256 239 265 134 174 184 170 175 169 165 164 194 210 216 221 210 198 218 218 207 198 223 225
245 240 243 246 269 304 246 239 236 233 259 161 207 181 180 175 166 161 163 161 160 173 189 201 186 196 243 228 238 226 230 229
239 253 252 241 194 214 241 252 265 270 258 192 214 157 172 176 164 159 161 157 151 142 143 189 204 202 211 228 282 304 227 231
223 252 246 266 253 199 185 266 258 238 247 167 182 193 175 174 162 154 154 157 154 143 69 323 278 248 243 244 250 269 266 248
227 235 258 250 115 170 230 11 343 210 221 164 191 223 137 154 155 156 154 154 149 126 93 302 300 277 264 249 239 262 272 270
235 244 239 355 122 219 53 17 28 234 178 173 131 136 142 149 155 155 151 152 150 133 88 319 307 314 302 273 240 241 248 246
242 218 350 212 238 201 258 269 164 164 166 159 154 156 158 158 161 165 170 173 169 209 292 300 317 313 302 279 235 228 228 238
257 308 257 237 265 225 202 242 196 170 161 159 177 173 173 171 178 180 189 196 204 215 263 290 296 292 275 274 250 225 213 228
230 217 300 273 273 226 212 228 195 184 168 183 189 182 188 190 198 205 212 212 211 214 230 253 276 282 293 273 264 240 227 230
241 260 235 287 285 218 219 204 205 184 176 185 200 197 201 216 215 219 220 218 215 216 226 235 259 275 274 281 277 254 242 230
234 232 255 256 272 218 223 207 198 195 183 187 199 215 227 227 229 225 221 217 218 226 239 249 263 262 268 262 267 269 246 217